Simultaneous Nadir Overpasses (SNOs) Predictions

Prediction of SNOs between AQUA and NOAA-19 Satellite Orbit:

Table of predicted SNOs for the next 14.0 days since TLE Epoch: 12/7/2013
Index Date (AQUA) Time (AQUA) Lat,Lon (AQUA) SZA (AQUA ) Date (NOAA-19) Time (NOAA-19) Lat,Lon (NOAA-19) SZA (NOAA-19 ) Distance(km) Time Diff (sec)
1 12/07/2013 11:29:01 68.65, 10.09 91.24 12/07/2013 11:29:06 68.65, 10.10 91.25 0.49 5
2 12/09/2013 16:13:19 68.75, -61.10 91.56 12/09/2013 16:13:16 68.75, -61.05 91.56 2.41 3
3 12/11/2013 20:57:45 69.33,-132.91 92.30 12/11/2013 20:57:35 69.32,-132.88 92.30 1.11 10
4 12/14/2013 01:42:05 69.59, 155.68 92.71 12/14/2013 01:41:48 69.59, 155.71 92.70 1.67 17
5 12/14/2013 02:27:24 -55.52, -25.01 100.63 12/14/2013 02:28:37 -55.60, -24.36 100.43 42.05 73
6 12/16/20
